Powrót do katalogu

STARLINK-35691

AktywnyŁącznośćVLEO
NORAD 66404·PAYLOAD·🇺🇸 United States

Wystrzelony Nov 8, 2025 z Cape Canaveral Space Force Station

Loading…

Następne Przeloty (najbliższe 24 godziny)

TLE

ŚwieżeSource: CelesTrak SupGP

Epoka: Sep 15, 2026, 02:41 UTC

1 66404C 25257AA  26258.11229167 -.00019177  00000+0 -56665-3 0  2588
2 66404  53.1591  52.9078 0001204  86.5824 323.6685 15.34396331    19

Śledź STARLINK-35691 w czasie rzeczywistym z AllMySat

Download on the App Store